Location: ?????
(32.7281°N, 34.9563°E)
Time: 23:45:06
(UTC+00:00)

CZ-4B R/B - Pass Details

Date: 11 March 2021
Orbit: 388 x 454 km, 97.6° (Epoch: 22 April)

Event Time Altitude Azimuth Distance (km) Brightness Sun altitude
Rises 03:04:17 0° 165° (SSE) 2,313 5.2 -11.6°
Reaches altitude 10° 03:06:16 10° 164° (SSE) 1,448 4.1 -11.2°
Maximum altitude 03:09:21 80° 78° (ENE) 407 1.2 -10.6°
Drops below altitude 10° 03:12:24 10° 351° (N) 1,434 3.9 -9.9°
Sets 03:14:22 0° 350° (N) 2,288 4.9 -9.5°
